Regional Weather Roundup
Issued by NWS Bismarck, ND

Home | Current Version | Previous Version | Text Only | Print | Product List | Glossary On
Versions: 1 2 3 4 5 6 7 8 9 10 11 12 13 14 15 16 17 18 19 20 21 22 23 24 25 26 27 28 29 30 31 32 33 34 35 36 37 38 39 40 41 42 43 44 45 46 47 48 49 50
000
ASUS43 KBIS 181810
RWRBIS

NWR BROADCAST TEXT
NATIONAL WEATHER SERVICE BISMARCK ND
100 PM CDT FRI AUG 18 2017

NOTE: "FAIR" INDICATES FEW OR NO CLOUDS BELOW 12,000 FEET WITH NO
SIGNIFICANT WEATHER AND/OR OBSTRUCTIONS TO VISIBILITY.


CITY           SKY/WX    TMP DP  RH WIND       PRES   REMARKS
WILLISTON      SUNNY     79  52  38 VRB3      29.96F
MINOT          SUNNY     79  50  36 W14G20    29.92F
MINOT AFB      SUNNY     79  46  31 NW16      29.91S
BISMARCK       SUNNY     76  56  49 W7        29.97R
DICKINSON      SUNNY     79  50  36 NW5       29.99F
GARRISON         N/A     77  52  41 NW8G18    29.95S
HETTINGER ARPT SUNNY     79  48  33 N7        30.02F
JAMESTOWN      CLOUDY    67  59  75 NW8       29.92R
CARRINGTON     FAIR      73  61  64 NW13      29.94S
HAZEN          FAIR      77  54  44 VRB5      29.98S
LINTON         FAIR      75  52  43 N10       29.97S
MANDAN         FAIR      73  55  53 NW7       29.98S
RUGBY          FAIR      75  57  53 VRB3G12   29.91F
STANLEY        FAIR      75  50  41 NW9G15    29.99S
TIOGA          FAIR      75  50  41 NW6G13    29.98F
WATFORD CITY   FAIR      79  46  31 NW5       29.96F
$$

CITY           SKY/WX    TMP DP  RH WIND       PRES   REMARKS
GRAND FORKS    PTSUNNY   80  58  46 NW8       29.85R
GRAND FORKS AF MOSUNNY   76  60  55 NW8       29.87R
DEVILS LAKE    SUNNY     74  58  57 NW15      29.90F
FARGO          CLOUDY    76  61  59 SW7       29.87F
CANDO          FAIR      77  55  47 NW10      29.92S
CAVALIER       FAIR      77  57  50 NW10      29.84S
GRAFTON        FAIR      73  61  64 W8        29.86F
GWINNER        MOCLDY    63  61  94 CALM      29.91F
LANGDON        FAIR      77  57  50 W9G17     29.89S
ROLLA          FAIR      77  52  41 NW8G14    29.92S
WALHALLA       FAIR      77  77 100 NW12      29.84F
$$

CITY           SKY/WX    TMP DP  RH WIND       PRES   REMARKS
ABERDEEN       PTSUNNY   71  60  68 NW16G25   29.90S
MOBRIDGE       MOSUNNY   76  59  55 N13       29.94S
BUFFALO          N/A     80  47  31 NW6       29.98F
RAPID CITY     SUNNY     82  46  28 N10       30.05F
GLASGOW        SUNNY     81  43  26 W3        29.94F
SIDNEY         SUNNY     78  54  43 E3        29.97F
WOLF POINT     SUNNY     83  46  27 VRB5      29.94F
GLENDIVE       SUNNY     82  48  30 S12G17    29.98F
MILES CITY     SUNNY     82  40  22 CALM      29.99F
BAKER          SUNNY     81  43  26 MISG      30.03F
$$

CITY           SKY/WX    TMP DP  RH WIND       PRES   REMARKS
BILLINGS       SUNNY     78  41  26 SW9       30.05F
GREAT FALLS    SUNNY     81  32  17 SW14G22   30.01F
REGINA         MOSUNNY   77  45  31 W13       29.91F
ESTEVAN        MOSUNNY   77  48  36 NW13      29.94F
$$





USA.gov is the U.S. government's official web portal to all federal, state and local government web resources and services.